Zurück zum Katalog

STARLINK-32049

AktivKommunikationVLEO
NORAD 60199·PAYLOAD·🇺🇸 United States

Gestartet Jul 3, 2024 von Cape Canaveral Space Force Station

Loading…

Nächste Überflüge (nächste 24 Stunden)

TLE

AktuellSource: CelesTrak SupGP

Epoche: Sep 14, 2026, 21:31 UTC

1 60199C 24124S   26257.89701389 -.00044319  00000+0 -13090-2 0  2579
2 60199  53.1578 159.8345 0001312  91.4188  65.3928 15.34423577    14

Verfolge STARLINK-32049 in Echtzeit mit AllMySat

Download on the App Store